Regional Weather Roundup
Issued by NWS Charleston, SC

Current Version | Previous Version | Graphics & Text | Print | Product List | Glossary On
Versions: 1 2 3 4 5 6 7 8 9 10 11 12 13 14 15 16 17 18 19 20 21 22 23 24 25 26 27 28 29 30 31 32 33 34 35 36 37 38 39 40 41 42 43 44 45 46 47 48 49 50
000
ASUS42 KCHS 181511
RWRCHS

REGIONAL WEATHER ROUNDUP
NATIONAL WEATHER SERVICE CHARLESTON SC
1100 AM EDT SAT APR 18 2015

NOTE: "FAIR" INDICATES FEW OR NO CLOUDS BELOW 12,000 FEET WITH NO
SIGNIFICANT WEATHER AND/OR OBSTRUCTIONS TO VISIBILITY.

NOT ALL STATIONS ARE QUALITY CONTROLLED BY THE NATIONAL
WEATHER SERVICE. USE DATA WITH CAUTION...ESPECIALLY
DEWPOINT OBSERVATIONS.

SCZ027-030-031-034>040-042>050-181600-
...SOUTHEAST SOUTH CAROLINA...

CITY           SKY/WX    TMP DP  RH WIND       PRES   REMARKS
N CHARLESTON   CLOUDY    72  67  84 CALM      30.00R
WATERFRONT PRK   N/A     72 N/A N/A E3          N/A
MOUNT PLEASANT CLOUDY    72  68  88 CALM      30.01R
PINOPOLIS      NOT AVBL
MONCKS CORNER  CLOUDY    72  66  83 N3        30.00S
SUMMERVILLE    CLOUDY    70  70 100 CALM      30.01R
BEAUFORT MCAS    N/A    N/A N/A N/A MISG      29.99S
BEAUFORT ARPT  NOT AVBL
HILTON HEAD IS PTSUNNY   70  66  88 E3        30.01S
WALTERBORO     CLOUDY    70  66  88 CALM      30.01R
ALLENDALE      CLOUDY    70  68  94 CALM      29.99R FOG

...SOUTHERN MIDLANDS AND PEE DEE...

CITY           SKY/WX    TMP DP  RH WIND       PRES   REMARKS
GEORGETOWN     NOT AVBL
KINGSTREE      NOT AVBL
ORANGEBURG     CLOUDY    70  64  81 NE6       30.01R
BARNWELL       LGT RAIN  70  68  94 E7        30.00S
AIKEN          CLOUDY    66  63  88 E5        30.04R
MANNING        HVY RAIN  70  64  83 NE3       30.01S
COLUMBIA       CLOUDY    70  64  81 E7        30.00S
SUMTER         LGT RAIN  70  66  88 NE5       30.00R
FLORENCE       CLOUDY    71  63  75 NE6       30.01S
MYRTLE BEACH   CLOUDY    70  66  88 N9        30.03R
N MYRTLE BEACH CLOUDY    68  66  93 NE9       30.00S

$$

GAZ063-065-086>088-099>101-113>116-118-119-134>141-150-181600-
...SOUTHEAST GEORGIA...

CITY           SKY/WX    TMP DP  RH WIND       PRES   REMARKS
SAVANNAH ARPT  CLOUDY    72  66  83 SE6       29.99S
HUNTER AAF     CLOUDY    72  71  98 SE6       29.97S
FORT STEWART   CLOUDY    73  68  85 SE2       29.96F
STATESBORO       N/A     69  69 100 S5        29.98S
SYLVANIA       CLOUDY    70  70  99 S3        29.99S FOG
CLAXTON        CLOUDY    70  68  94 CALM      29.98S

...CSRA...CENTRAL AND FAR SOUTHEAST GEORGIA...

CITY           SKY/WX    TMP DP  RH WIND       PRES   REMARKS
THOMSON        CLOUDY    68  68 100 CALM      30.04S
AUGUSTA-BUSH   RAIN      67  66  97 CALM      29.99S FOG
AUGUSTA-DANIEL HVY RAIN  67  65  93 E5        30.00R FOG
SWAINSBORO     CLOUDY    70  70 100 S3        29.99R FOG
VIDALIA        RAIN      72  68  88 SW6       29.98S
EASTMAN        CLOUDY    73  72  97 SW5       30.00R
HAZLEHURST     CLOUDY    72  72 100 CALM      29.98R FOG
ALMA           CLOUDY    71  69  93 SW5       29.98R FOG
WAYCROSS       CLOUDY    76  74  93 CALM      29.99R FOG
JESUP          CLOUDY    75  72  88 SW5       29.98S
BAXLEY         CLOUDY    72  70  94 S3        29.98S FOG
BRUNSWICK      PTSUNNY   75  68  78 SW6       29.99S
SAINT SIMONS   PTSUNNY   75  68  78 S6        29.99R

$$

SCZ027-028-034-036>038-045-046-048>050-GAZ119-141-181600-
...LAKE AND SUPPLEMENTAL COASTAL OBSERVATIONS...

STATION/POSITION TIME  TEMP    WIND        PRES    WAVE   SWELL
                       AIR SEA DIR/SP/G            HT/PER HT/PER/DIR
                 (UTC) (F)     (DEG/KT/KT) (MB)    (FT/S) (FT/S/D)
UPR LAKE MARION  NOT AVBL
WINYAH BAY       NOT AVBL
LAKE MURRAY      1400   66      40/  2/  3 1015.6F
ACE BASIN NERRS  NOT AVBL
FORT PULASKI     1400   69 70  140/  3/  4 1016.2R
SAPELO ISLAND    NOT AVBL

$$

ANZ835-935-AMZ111-154-330-350-352-354-370-450-454-472-181600-
...C-MAN AND BUOY OBSERVATIONS...

STATION/POSITION TIME  TEMP    WIND        PRES    WAVE   SWELL
                       AIR SEA DIR/SP/G            HT/PER HT/PER/DIR
                 (UTC) (F)     (DEG/KT/KT) (MB)    (FT/S) (FT/S/D)
BUOY 41004       1450   70 75   10/  8/ 10 1015.1R   4/ 8   3/ 8
BUOY 41008       1450   67 67  160/  6/  6 1015.8R   2/10   2/ 70/10
FOLLY BEACH CMAN 1500   69     180/  1/  2 1016.0R
CAPERS NEARSHORE NOT AVBL
FRIPP NEARSHORE  1400   68      30/  4/  4 1015.4R


STATION/POSITION TIME  TEMP    WIND        PRES    WAVE   SWELL
                       AIR SEA DIR/SP/G            HT/PER HT/PER/DIR
                 (UTC) (F)     (DEG/KT/KT) (MB)    (FT/S) (FT/S/D)
5E ST. MARYS GA  1421      71                N/A     2/10   2/ 80/11
FRYING PAN BUOY  1450   71 73   60/ 14/ 16 1015.8R   4/ 9   3/110/ 9
BUOY 41025       1450   70 75   20/  8/ 10 1015.8R   5/ 8   5/100/ 8
CAPE LOOKOUT NC  1500   68      60/  3/  3 1016.0R
BUOY 41002       1450   73 74  250/ 10/ 12 1014.8R   6/ 8   5/ 90/ 8
BUOY 41010       1420   79 78  210/ 10/ 12 1015.4S
ST AUGUSTINE FL  1500   71 69   80/  5/  5 1016.2R


$$



USA.gov is the U.S. government's official web portal to all federal, state and local government web resources and services.